TimeEDT,TemperatureF,Dew PointF,Humidity,Sea Level PressureIn,VisibilityMPH,Wind Direction,Wind SpeedMPH,Gust SpeedMPH,PrecipitationIn,Events,Conditions,WindDirDegrees,DateUTC
12:15 AM,61.9,57.0,84,29.80,10.0,North,3.5,-,N/A,,Scattered Clouds,360,2013-09-04 04:15:00
12:35 AM,62.2,56.7,82,29.81,10.0,NW,5.8,-,N/A,,Scattered Clouds,320,2013-09-04 04:35:00
1:15 AM,61.0,57.2,87,29.79,10.0,WNW,3.5,-,N/A,,Scattered Clouds,300,2013-09-04 05:15:00
1:35 AM,60.6,56.3,86,29.79,10.0,Calm,Calm,-,N/A,,Clear,0,2013-09-04 05:35:00
1:55 AM,60.6,56.1,85,29.80,10.0,Calm,Calm,-,N/A,,Clear,0,2013-09-04 05:55:00
2:15 AM,58.8,56.1,91,29.80,10.0,Calm,Calm,-,N/A,,Scattered Clouds,0,2013-09-04 06:15:00
2:35 AM,58.8,56.1,91,29.80,10.0,Calm,Calm,-,N/A,,Scattered Clouds,0,2013-09-04 06:35:00
2:55 AM,58.1,55.4,91,29.80,10.0,Calm,Calm,-,N/A,,Clear,0,2013-09-04 06:55:00
3:15 AM,57.7,55.9,94,29.80,10.0,Calm,Calm,-,N/A,,Scattered Clouds,0,2013-09-04 07:15:00
3:35 AM,60.1,56.5,88,29.81,10.0,West,5.8,-,N/A,,Mostly Cloudy,270,2013-09-04 07:35:00
3:55 AM,61.9,56.3,82,29.81,10.0,West,6.9,-,N/A,,Mostly Cloudy,270,2013-09-04 07:55:00
4:15 AM,62.6,56.3,80,29.81,10.0,West,5.8,-,N/A,,Overcast,270,2013-09-04 08:15:00
4:35 AM,61.9,56.3,82,29.82,10.0,West,4.6,-,N/A,,Overcast,270,2013-09-04 08:35:00
4:55 AM,61.7,56.3,82,29.83,10.0,West,4.6,-,N/A,,Overcast,280,2013-09-04 08:55:00
5:15 AM,61.0,56.1,84,29.83,10.0,Calm,Calm,-,N/A,,Mostly Cloudy,0,2013-09-04 09:15:00
5:35 AM,61.0,55.8,83,29.83,10.0,Calm,Calm,-,N/A,,Scattered Clouds,0,2013-09-04 09:35:00
5:55 AM,59.0,55.4,88,29.84,10.0,East,3.5,-,N/A,,Clear,80,2013-09-04 09:55:00
6:15 AM,57.9,55.6,92,29.85,10.0,Calm,Calm,-,N/A,,Clear,0,2013-09-04 10:15:00
6:35 AM,56.7,54.0,91,29.86,10.0,Calm,Calm,-,N/A,,Clear,0,2013-09-04 10:35:00
6:55 AM,56.3,54.7,94,29.86,10.0,Calm,Calm,-,N/A,,Clear,0,2013-09-04 10:55:00
7:15 AM,57.6,56.1,95,29.86,10.0,Calm,Calm,-,N/A,,Clear,0,2013-09-04 11:15:00
7:35 AM,61.3,56.3,83,29.87,10.0,WNW,3.5,-,N/A,,Clear,290,2013-09-04 11:35:00
7:55 AM,62.8,56.1,79,29.87,10.0,WNW,3.5,-,N/A,,Clear,290,2013-09-04 11:55:00
8:15 AM,63.5,55.9,76,29.87,10.0,NW,3.5,-,N/A,,Clear,310,2013-09-04 12:15:00
8:35 AM,64.4,56.3,75,29.87,10.0,WNW,3.5,-,N/A,,Clear,300,2013-09-04 12:35:00
8:55 AM,65.5,56.3,72,29.86,10.0,West,3.5,-,N/A,,Clear,280,2013-09-04 12:55:00
9:15 AM,67.1,55.9,67,29.87,10.0,WNW,6.9,-,N/A,,Clear,290,2013-09-04 13:15:00
9:35 AM,67.8,55.8,65,29.87,10.0,WNW,4.6,-,N/A,,Clear,300,2013-09-04 13:35:00
9:55 AM,69.3,53.6,57,29.87,10.0,WNW,5.8,-,N/A,,Clear,300,2013-09-04 13:55:00
10:15 AM,69.8,52.3,54,29.86,10.0,WNW,10.4,19.6,N/A,,Clear,290,2013-09-04 14:15:00
10:35 AM,69.8,51.6,52,29.86,10.0,West,9.2,17.3,N/A,,Clear,270,2013-09-04 14:35:00
10:55 AM,70.2,52.5,53,29.86,10.0,WSW,6.9,-,N/A,,Clear,250,2013-09-04 14:55:00
11:15 AM,71.2,53.4,53,29.86,10.0,West,6.9,-,N/A,,Clear,280,2013-09-04 15:15:00
11:35 AM,72.7,50.5,46,29.86,10.0,West,10.4,17.3,N/A,,Clear,260,2013-09-04 15:35:00
11:55 AM,73.0,49.8,44,29.86,10.0,West,11.5,16.1,N/A,,Clear,260,2013-09-04 15:55:00
12:15 PM,73.0,50.2,44,29.85,10.0,West,10.4,17.3,N/A,,Clear,260,2013-09-04 16:15:00
12:35 PM,72.5,51.3,47,29.86,10.0,NW,9.2,-,N/A,,Clear,310,2013-09-04 16:35:00
12:55 PM,74.3,51.4,45,29.86,10.0,West,8.1,17.3,N/A,,Clear,280,2013-09-04 16:55:00
1:15 PM,74.3,50.7,43,29.86,10.0,WNW,8.1,17.3,N/A,,Clear,290,2013-09-04 17:15:00
1:35 PM,75.2,51.1,43,29.85,10.0,West,8.1,16.1,N/A,,Clear,280,2013-09-04 17:35:00
1:55 PM,75.6,52.5,45,29.84,10.0,West,9.2,-,N/A,,Scattered Clouds,270,2013-09-04 17:55:00
2:15 PM,76.1,51.3,42,29.84,10.0,NW,12.7,17.3,N/A,,Clear,310,2013-09-04 18:15:00
2:35 PM,75.6,52.0,44,29.84,10.0,NW,9.2,-,N/A,,Clear,310,2013-09-04 18:35:00
2:55 PM,75.6,51.6,43,29.85,10.0,WNW,11.5,16.1,N/A,,Clear,290,2013-09-04 18:55:00
3:15 PM,73.6,50.4,44,29.86,10.0,NW,8.1,19.6,N/A,,Clear,310,2013-09-04 19:15:00
3:35 PM,74.3,51.8,45,29.86,10.0,West,5.8,-,N/A,,Clear,280,2013-09-04 19:35:00
3:55 PM,74.3,52.9,47,29.86,10.0,WNW,8.1,-,N/A,,Clear,290,2013-09-04 19:55:00
4:15 PM,73.8,53.4,49,29.86,10.0,West,5.8,-,N/A,,Clear,280,2013-09-04 20:15:00
4:35 PM,74.1,52.9,47,29.86,10.0,West,8.1,16.1,N/A,,Clear,270,2013-09-04 20:35:00
4:55 PM,74.3,53.6,48,29.86,10.0,West,4.6,-,N/A,,Scattered Clouds,270,2013-09-04 20:55:00
5:15 PM,73.4,54.0,50,29.85,10.0,West,6.9,-,N/A,,Mostly Cloudy,270,2013-09-04 21:15:00
5:35 PM,73.9,54.7,51,29.84,10.0,West,4.6,-,N/A,,Scattered Clouds,270,2013-09-04 21:35:00
5:55 PM,73.8,55.8,53,29.85,10.0,WNW,4.6,-,N/A,,Clear,300,2013-09-04 21:55:00
6:15 PM,72.7,56.5,57,29.85,10.0,Calm,Calm,-,N/A,,Scattered Clouds,0,2013-09-04 22:15:00
6:35 PM,72.0,56.5,58,29.84,10.0,WSW,4.6,-,N/A,,Mostly Cloudy,250,2013-09-04 22:35:00
6:55 PM,70.0,58.5,67,29.85,10.0,Calm,Calm,-,N/A,,Overcast,0,2013-09-04 22:55:00
7:15 PM,67.3,61.0,80,29.85,10.0,Calm,Calm,-,N/A,,Overcast,0,2013-09-04 23:15:00
7:35 PM,66.6,61.3,83,29.86,10.0,Calm,Calm,-,N/A,,Overcast,0,2013-09-04 23:35:00
7:55 PM,66.2,61.2,84,29.86,10.0,Calm,Calm,-,N/A,,Overcast,0,2013-09-04 23:55:00
8:15 PM,66.7,60.4,80,29.88,10.0,West,4.6,-,N/A,,Overcast,280,2013-09-05 00:15:00
8:35 PM,68.4,56.7,66,29.89,10.0,West,5.8,-,N/A,,Overcast,260,2013-09-05 00:35:00
8:55 PM,68.0,56.3,66,29.89,10.0,West,5.8,-,N/A,,Overcast,270,2013-09-05 00:55:00
9:15 PM,66.9,56.5,69,29.90,10.0,West,4.6,-,N/A,,Overcast,260,2013-09-05 01:15:00
9:35 PM,66.7,56.3,69,29.90,10.0,West,5.8,-,N/A,,Overcast,270,2013-09-05 01:35:00
9:55 PM,66.4,56.3,70,29.91,10.0,West,4.6,-,N/A,,Overcast,270,2013-09-05 01:55:00
10:15 PM,66.2,56.5,71,29.91,10.0,West,5.8,-,N/A,,Overcast,270,2013-09-05 02:15:00
10:35 PM,65.8,56.5,72,29.91,10.0,West,4.6,-,N/A,,Overcast,270,2013-09-05 02:35:00
10:55 PM,65.5,56.5,73,29.91,10.0,WNW,3.5,-,N/A,,Overcast,290,2013-09-05 02:55:00
11:15 PM,64.8,56.7,75,29.91,10.0,West,4.6,-,N/A,Rain,Light Rain,280,2013-09-05 03:15:00
11:35 PM,64.0,56.5,76,29.90,10.0,Calm,Calm,-,N/A,,Mostly Cloudy,0,2013-09-05 03:35:00
11:55 PM,62.2,56.7,82,29.89,10.0,Calm,Calm,-,N/A,,Scattered Clouds,0,2013-09-05 03:55:00